Stündliche Wetter Central Java

Heute, 26 Januar, Dienstag

Zeit Temperatur Niederschläge Wind Luftdruck Luftfeuchtigkeit
00:00 +22°C° 0.2 mm 0 m/S 711 mmHg 88%
01:00 +22°C° 0 mm 0 m/S 711 mmHg 87%
02:00 +22°C° 0 mm 0 m/S 711 mmHg 88%
03:00 +22°C° 0 mm 0 m/S 710 mmHg 88%
04:00 +22°C° 0 mm 0 m/S 710 mmHg 88%
05:00 +22°C° 0 mm 0 m/S 711 mmHg 87%
06:00 +23°C° 0 mm 0 m/S 711 mmHg 85%
07:00 +24°C° 0 mm 0 m/S 711 mmHg 84%
08:00 +25°C° 0.3 mm 0 m/S 712 mmHg 79%
09:00 +28°C° 0.3 mm 1 m/S 712 mmHg 74%
10:00 +29°C° 0.3 mm 1 m/S 712 mmHg 70%
11:00 +29°C° 1.5 mm 1 m/S 711 mmHg 72%
12:00 +29°C° 1.5 mm 1 m/S 711 mmHg 74%
13:00 +28°C° 0 mm 1 m/S 710 mmHg 77%
14:00 +28°C° 1.9 mm 1 m/S 710 mmHg 81%
15:00 +27°C° 1.9 mm 1 m/S 709 mmHg 85%
16:00 +26°C° 1.9 mm 2 m/S 709 mmHg 88%
17:00 +26°C° 0.6 mm 1 m/S 709 mmHg 90%
18:00 +25°C° 0.6 mm 1 m/S 710 mmHg 92%
19:00 +25°C° 0.6 mm 1 m/S 710 mmHg 93%
20:00 +25°C° 1.2 mm 1 m/S 710 mmHg 92%
21:00 +24°C° 1.2 mm 1 m/S 711 mmHg 92%
22:00 +24°C° 1.2 mm 1 m/S 711 mmHg 91%
23:00 +24°C° 0.6 mm 1 m/S 711 mmHg 91%

Morgen, 27 Januar, Mittwoch

Zeit Temperatur Niederschläge Wind Luftdruck Luftfeuchtigkeit
00:00 +24°C° 0.6 mm 1 m/S 710 mmHg 92%
01:00 +24°C° 0.6 mm 1 m/S 710 mmHg 92%
02:00 +23°C° 0.1 mm 1 m/S 710 mmHg 92%
03:00 +23°C° 0.1 mm 1 m/S 710 mmHg 92%
04:00 +23°C° 0.1 mm 1 m/S 709 mmHg 92%
05:00 +24°C° 0 mm 1 m/S 710 mmHg 91%
06:00 +24°C° 0 mm 1 m/S 710 mmHg 89%
07:00 +24°C° 0 mm 1 m/S 710 mmHg 88%
08:00 +26°C° 0.3 mm 1 m/S 711 mmHg 83%
09:00 +27°C° 0.3 mm 1 m/S 711 mmHg 78%
10:00 +29°C° 0.3 mm 1 m/S 711 mmHg 73%
11:00 +29°C° 2.1 mm 1 m/S 710 mmHg 76%
12:00 +28°C° 2.1 mm 1 m/S 710 mmHg 78%
13:00 +28°C° 2.1 mm 1 m/S 710 mmHg 80%
14:00 +27°C° 2.6 mm 1 m/S 709 mmHg 84%
15:00 +26°C° 2.6 mm 1 m/S 709 mmHg 89%
16:00 +25°C° 2.6 mm 1 m/S 709 mmHg 93%
17:00 +25°C° 5.4 mm 1 m/S 709 mmHg 94%
18:00 +25°C° 5.4 mm 1 m/S 709 mmHg 95%
19:00 +24°C° 5.4 mm 1 m/S 710 mmHg 96%
20:00 +24°C° 3.5 mm 1 m/S 710 mmHg 95%
21:00 +24°C° 3.5 mm 1 m/S 710 mmHg 94%
22:00 +24°C° 3.5 mm 1 m/S 711 mmHg 94%
23:00 +24°C° 0.2 mm 1 m/S 710 mmHg 94%

übermorgen, 28 Januar, Donnerstag

Zeit Temperatur Niederschläge Wind Luftdruck Luftfeuchtigkeit
00:00 +24°C° 0.2 mm 1 m/S 710 mmHg 94%
01:00 +23°C° 0.2 mm 1 m/S 710 mmHg 93%
02:00 +23°C° 0.1 mm 1 m/S 710 mmHg 94%
03:00 +23°C° 0.1 mm 1 m/S 709 mmHg 94%
04:00 +23°C° 0.1 mm 1 m/S 709 mmHg 94%
05:00 +24°C° 0.3 mm 1 m/S 710 mmHg 93%
06:00 +24°C° 0.3 mm 1 m/S 710 mmHg 93%
07:00 +24°C° 0.3 mm 1 m/S 710 mmHg 92%
08:00 +25°C° 0.2 mm 1 m/S 711 mmHg 90%
09:00 +25°C° 0.2 mm 1 m/S 711 mmHg 88%
10:00 +26°C° 0.2 mm 1 m/S 711 mmHg 86%
11:00 +26°C° 1.1 mm 1 m/S 711 mmHg 86%
12:00 +26°C° 1.1 mm 2 m/S 710 mmHg 87%
13:00 +26°C° 1.1 mm 2 m/S 710 mmHg 87%
14:00 +26°C° 1.7 mm 2 m/S 709 mmHg 89%
15:00 +25°C° 1.7 mm 2 m/S 709 mmHg 92%
16:00 +24°C° 1.7 mm 2 m/S 709 mmHg 94%
17:00 +24°C° 3.8 mm 2 m/S 709 mmHg 95%
18:00 +24°C° 3.8 mm 2 m/S 710 mmHg 96%
19:00 +23°C° 3.8 mm 1 m/S 710 mmHg 96%
20:00 +23°C° 1.5 mm 1 m/S 711 mmHg 96%
21:00 +23°C° 1.5 mm 1 m/S 711 mmHg 96%
22:00 +23°C° 1.5 mm 1 m/S 711 mmHg 96%
23:00 +23°C° 0.7 mm 1 m/S 711 mmHg 96%

29 Januar, Freitag

Zeit Temperatur Niederschläge Wind Luftdruck Luftfeuchtigkeit
00:00 +23°C° 0.7 mm 1 m/S 711 mmHg 95%
01:00 +23°C° 0.7 mm 1 m/S 710 mmHg 95%
02:00 +23°C° 0.2 mm 1 m/S 710 mmHg 94%
03:00 +23°C° 0.2 mm 1 m/S 710 mmHg 94%
04:00 +23°C° 0.2 mm 1 m/S 710 mmHg 93%
05:00 +23°C° 0.1 mm 1 m/S 710 mmHg 92%
06:00 +23°C° 0.1 mm 1 m/S 711 mmHg 92%
07:00 +24°C° 0.1 mm 1 m/S 711 mmHg 91%
08:00 +25°C° 0.2 mm 2 m/S 711 mmHg 88%
09:00 +26°C° 0.2 mm 2 m/S 712 mmHg 85%
10:00 +27°C° 0.2 mm 3 m/S 712 mmHg 82%
11:00 +27°C° 0.8 mm 3 m/S 711 mmHg 82%
12:00 +27°C° 0.8 mm 3 m/S 711 mmHg 82%
13:00 +27°C° 0.8 mm 3 m/S 710 mmHg 81%
14:00 +26°C° 1 mm 3 m/S 710 mmHg 84%
15:00 +26°C° 1 mm 3 m/S 710 mmHg 86%
16:00 +25°C° 1 mm 3 m/S 709 mmHg 88%
17:00 +25°C° 1.3 mm 2 m/S 710 mmHg 90%
18:00 +24°C° 1.3 mm 2 m/S 710 mmHg 93%
19:00 +24°C° 1.3 mm 2 m/S 710 mmHg 95%
20:00 +24°C° 2 mm 2 m/S 711 mmHg 94%
21:00 +24°C° 2 mm 2 m/S 711 mmHg 94%
22:00 +24°C° 2 mm 2 m/S 712 mmHg 94%
23:00 +24°C° 0.4 mm 2 m/S 711 mmHg 94%

30 Januar, Samstag

Zeit Temperatur Niederschläge Wind Luftdruck Luftfeuchtigkeit
00:00 +23°C° 0.4 mm 1 m/S 711 mmHg 93%
01:00 +23°C° 0.4 mm 1 m/S 710 mmHg 93%
02:00 +23°C° 0.6 mm 1 m/S 710 mmHg 93%
03:00 +23°C° 0.6 mm 2 m/S 710 mmHg 94%
04:00 +23°C° 0.6 mm 2 m/S 710 mmHg 94%
05:00 +24°C° 0.7 mm 2 m/S 710 mmHg 93%
06:00 +24°C° 0.7 mm 2 m/S 711 mmHg 93%
07:00 +24°C° 0.7 mm 3 m/S 711 mmHg 92%
08:00 +24°C° 1.5 mm 3 m/S 711 mmHg 92%
09:00 +24°C° 1.5 mm 3 m/S 712 mmHg 92%
10:00 +25°C° 1.5 mm 3 m/S 712 mmHg 91%
11:00 +25°C° 1 mm 3 m/S 711 mmHg 88%
12:00 +26°C° 1 mm 3 m/S 711 mmHg 85%
13:00 +27°C° 1 mm 3 m/S 711 mmHg 82%
14:00 +27°C° 0.9 mm 3 m/S 710 mmHg 84%
15:00 +26°C° 0.9 mm 3 m/S 710 mmHg 86%
16:00 +26°C° 0.9 mm 3 m/S 710 mmHg 87%
17:00 +25°C° 0.5 mm 2 m/S 710 mmHg 89%
18:00 +25°C° 0.5 mm 2 m/S 711 mmHg 91%
19:00 +24°C° 0.5 mm 1 m/S 711 mmHg 93%
20:00 +24°C° 0.2 mm 1 m/S 711 mmHg 92%
21:00 +24°C° 0.2 mm 1 m/S 712 mmHg 92%
22:00 +24°C° 0.2 mm 1 m/S 712 mmHg 91%
23:00 +23°C° 0.1 mm 1 m/S 712 mmHg 91%

31 Januar, Sonntag

Zeit Temperatur Niederschläge Wind Luftdruck Luftfeuchtigkeit
00:00 +23°C° 0.1 mm 1 m/S 711 mmHg 90%
01:00 +23°C° 0.1 mm 1 m/S 711 mmHg 89%
02:00 +23°C° 0 mm 1 m/S 711 mmHg 90%
03:00 +23°C° 0 mm 1 m/S 711 mmHg 90%
04:00 +23°C° 0 mm 1 m/S 710 mmHg 90%
05:00 +23°C° 0.1 mm 1 m/S 711 mmHg 89%
06:00 +24°C° 0.1 mm 1 m/S 711 mmHg 88%
07:00 +24°C° 0.1 mm 1 m/S 712 mmHg 86%
08:00 +26°C° 0.1 mm 2 m/S 712 mmHg 82%
09:00 +27°C° 0.1 mm 2 m/S 712 mmHg 77%
10:00 +29°C° 0.1 mm 3 m/S 712 mmHg 72%
11:00 +29°C° 1 mm 3 m/S 712 mmHg 73%
12:00 +29°C° 1 mm 3 m/S 711 mmHg 74%
13:00 +29°C° 1 mm 3 m/S 711 mmHg 75%
14:00 +28°C° 1.6 mm 3 m/S 710 mmHg 78%
15:00 +27°C° 1.6 mm 3 m/S 710 mmHg 82%
16:00 +26°C° 1.6 mm 3 m/S 710 mmHg 85%
17:00 +25°C° 9.2 mm 3 m/S 710 mmHg 89%
18:00 +25°C° 9.2 mm 3 m/S 710 mmHg 92%
19:00 +24°C° 9.2 mm 2 m/S 711 mmHg 95%
20:00 +23°C° 6.6 mm 2 m/S 711 mmHg 95%
21:00 +23°C° 6.6 mm 2 m/S 712 mmHg 94%
22:00 +23°C° 6.6 mm 1 m/S 712 mmHg 93%
23:00 +23°C° 0.4 mm 1 m/S 712 mmHg 93%
Mehr zeigen

Wir brauchen deine Erlaubnis

Meteoprog und unser Service Anbieter werden persönliche Daten aufbewahren, so wie Cookies, Geräte Bezeichnung oder ähnliche Technologien von deinem Gerät und Prozess, so wie Persönliche Daten Inhalte und Werbungen, genauso wie social Media und den Verkehr zu analysieren.

  • Aufbewahrung und/oder Zugang zu deiner Geräte Informationen.

    Cookies, Geräte Bezeichnung oder andere Informationen, können aufbewahrt oder Zugang zu deinem Gerät erhalten, für den Grund, der oben angegeben wird.

  • Personalisierte Werbung und Inhalte, Messungen, Einblick in das Publikum und Produkt Entwicklung.

    Werbungen und Inhalte können personalisiert werden, basierend auf ein Profil. Mehr Daten können besser personalisierte Werbungen und Inhalte hinzufügen. Werbung und Inhalte können gezeigt und gemessen werden. Einblicke über das Publikum, welche die Werbung gesehen haben und den Inhalt, können abgeleitet werden. So wie Daten können genutzt werden, um es zu verbessern oder die Benutzer Erfahrung zu verbessern das System und die Software.

Wenn du “Ich stimme zu” klickst, erlaubst du uns, die Cookies zu benutzen die Geräte Bezeichnung, den Web oder ähnliche Technologien zu benutzen. Deine Settings, können in deinem Gerät bei deinem Browser geändert werden.

Für den bestimmten Zweck, berechtigten Interessen beruhen darauf, mehr als auf den Inhalt. Du kannst mehr darüber in unseren Privaten und Cookie Politik lesen.